Location: Unspecified
(43.4354°N, 0.0000°E)
Time: 06:37:03
(UTC+00:00)

Transit 2A - Pass Details

Date: 19 June 2019
Orbit: 600 x 959 km, 66.7° (Epoch: 13 October)

Event Time Altitude Azimuth Distance (km) Brightness Sun altitude
Rises 10:52:05 0° 319° (NW) 3,407 9.1 65.4°
Reaches altitude 10° 10:54:59 10° 308° (NW) 2,404 8.5 65.8°
Maximum altitude 10:59:28 26° 253° (WSW) 1,454 7.7 66.3°
Drops below altitude 10° 11:03:37 10° 197° (SSW) 2,190 8.7 66.7°
Sets 11:06:09 0° 184° (S) 3,046 9.4 67.0°
